Weather History for Westfield, MA

Change the Weather History Date:

Thursday, June 6, 2013

  Actual Average Record
Temperature  
Mean Temperature 60 °F -  
Max Temperature 72 °F 72 °F 84 °F (2005)
Min Temperature 50 °F 50 °F 44 °F (2007)
Degree Days  
Heating Degree Days 4    
Growing Degree Days 10 (Base 50)    
Moisture  
Dew Point 51 °F    
Average Humidity 71    
Maximum Humidity 93    
Minimum Humidity 47    
Precipitation  
Precipitation 0.11 in - - ()
Sea Level Pressure  
Sea Level Pressure 30.13 in    
Wind  
Wind Speed 3 mph (SSE)    
Max Wind Speed 12 mph    
Max Gust Speed 22 mph    
Visibility 10 miles    
Events Rain    
Averages and records for this station are not official NWS values.
T = Trace of Precipitation, MM = Missing Value Source: NWS Daily Summary

Daily Weather History Graph

Daily Weather History Graph

Search for Another Location

Airport:

Trip Planner

Search our weather history database for the weather conditions in past years. The results will help you decide how hot, cold, wet, or windy it might be!

Date:

Astronomy

Jun. 06, 2013 Rise Set
Actual Time 5:15 AM EDT 8:24 PM EDT
Civil Twilight 4:41 AM EDT 8:58 PM EDT
Nautical Twilight 3:57 AM EDT 9:42 PM EDT
Astronomical Twilight 3:05 AM EDT 10:34 PM EDT
Moon 3:56 AM EDT (6/6) 6:41 PM EDT (6/6)
Length of Visible Light 16h 17m
Length of Day
15h 08m
Waning Crescent, 4% of the Moon is Illuminated
Jun 6
Waning Crescent
Jun 8
New
Jun 16
First Quarter
Jun 23
Full
Jun 30
Last Quarter

Hourly Weather History & Observations

Time (EDT) Temp. Dew Point Humidity Pressure Visibility Wind Dir Wind Speed Gust Speed Precip Events Conditions
12:53 AM 57.9 °F 48.0 °F 70% 30.14 in 10.0 mi Calm Calm - N/A   Clear
1:53 AM 55.9 °F 48.0 °F 75% 30.15 in 10.0 mi Calm Calm - N/A   Clear
2:53 AM 53.1 °F 48.9 °F 86% 30.17 in 10.0 mi Calm Calm - N/A   Clear
3:53 AM 51.1 °F 48.9 °F 92% 30.16 in 10.0 mi Calm Calm - N/A   Clear
4:53 AM 50.0 °F 48.0 °F 93% 30.17 in 10.0 mi Calm Calm - N/A   Clear
5:53 AM 51.1 °F 48.9 °F 92% 30.17 in 10.0 mi Calm Calm - N/A   Clear
6:53 AM 55.0 °F 51.1 °F 86% 30.19 in 10.0 mi Calm Calm - N/A   Clear
7:53 AM 59.0 °F 51.1 °F 75% 30.19 in 10.0 mi Calm Calm - N/A   Clear
8:53 AM 63.0 °F 53.1 °F 70% 30.17 in 10.0 mi Variable 4.6 mph - N/A   Clear
9:53 AM 64.0 °F 52.0 °F 65% 30.17 in 10.0 mi Variable 4.6 mph - N/A   Clear
10:53 AM 66.9 °F 53.1 °F 61% 30.15 in 10.0 mi Variable 3.5 mph - N/A   Clear
11:53 AM 69.1 °F 54.0 °F 58% 30.14 in 10.0 mi SE 6.9 mph - N/A   Clear
12:53 PM 70.0 °F 52.0 °F 53% 30.12 in 10.0 mi South 9.2 mph - N/A   Clear
1:53 PM 71.1 °F 53.1 °F 53% 30.11 in 10.0 mi South 10.4 mph - N/A   Partly Cloudy
2:53 PM 70.0 °F 53.1 °F 55% 30.09 in 10.0 mi SSE 9.2 mph - N/A   Scattered Clouds
3:53 PM 69.1 °F 48.0 °F 47% 30.10 in 10.0 mi South 11.5 mph 21.9 mph N/A   Partly Cloudy
4:53 PM 66.9 °F 48.9 °F 52% 30.10 in 10.0 mi South 8.1 mph - 0.00 in   Overcast
5:53 PM 66.9 °F 51.1 °F 57% 30.10 in 10.0 mi South 5.8 mph - 0.00 in   Clear
6:53 PM 64.9 °F 50.0 °F 58% 30.10 in 10.0 mi South 5.8 mph - N/A   Scattered Clouds
7:53 PM 64.9 °F 50.0 °F 58% 30.10 in 10.0 mi SSE 8.1 mph - 0.00 in Rain Light Rain
8:53 PM 59.0 °F 55.0 °F 87% 30.09 in 7.0 mi Calm Calm - 0.02 in Rain Light Rain
9:53 PM 59.0 °F 55.9 °F 90% 30.10 in 7.0 mi Calm Calm - 0.03 in Rain Light Rain
10:53 PM 59.0 °F 57.0 °F 93% 30.10 in 10.0 mi Calm Calm - 0.03 in Rain Light Rain
11:53 PM 57.9 °F 54.0 °F 87% 30.09 in 10.0 mi Variable 4.6 mph - 0.03 in Rain Light Rain